This is the latest recevied weather packets stored in our database for station/object N5DGC. If no packets are shown the sender has not sent any weather packets the latest 1 day(s).
| Time | Temp. | Humidity | Pressure | Rain* | Wind** | Luminosity | Snow |
|---|---|---|---|---|---|---|---|
| 1778057130 | 5.56° C | 73% | 1233.1 hPa | 0 mm | 0.89 m/s, 78° | 0 W/m² | - |
| 1778056825 | 5.56° C | 72% | 1233.3 hPa | 0 mm | 0.89 m/s, 83° | 0 W/m² | - |
| 1778056523 | 5.56° C | 72% | 1233.1 hPa | 0 mm | 0.89 m/s, 75° | 0 W/m² | - |
| 1778056220 | 5.56° C | 73% | 1233.2 hPa | 0 mm | 1.34 m/s, 83° | 0 W/m² | - |
| 1778055917 | 5.56° C | 71% | 1233.4 hPa | 0 mm | 0.89 m/s, 61° | 0 W/m² | - |
| 1778055612 | 6.11° C | 71% | 1233.2 hPa | 0 mm | 1.34 m/s, 76° | 0 W/m² | - |
| 1778055311 | 6.11° C | 71% | 1233.3 hPa | 0 mm | 0.89 m/s, 1° | 0 W/m² | - |
| 1778055008 | 6.11° C | 71% | 1233.3 hPa | 0 mm | 0.89 m/s, 74° | 0 W/m² | - |
| 1778054705 | 6.11° C | 72% | 1233.4 hPa | 0 mm | 0.89 m/s, 62° | 0 W/m² | - |
| 1778054402 | 6.11° C | 72% | 1233.3 hPa | 0 mm | 0.45 m/s, 59° | 0 W/m² | - |
| 1778054100 | 6.11° C | 72% | 1233.3 hPa | 0 mm | 0.89 m/s, 358° | 0 W/m² | - |
| 1778053796 | 6.11° C | 72% | 1233.3 hPa | 0 mm | 0.89 m/s, 93° | 0 W/m² | - |
| 1778053494 | 6.11° C | 71% | 1233.3 hPa | 0 mm | 0.89 m/s, 53° | 0 W/m² | - |
| 1778053191 | 6.67° C | 70% | 1233.3 hPa | 0 mm | 0.89 m/s, 91° | 0 W/m² | - |
| 1778052889 | 6.67° C | 69% | 1233.4 hPa | 0 mm | 0.89 m/s, 80° | 0 W/m² | - |
| 1778052586 | 7.22° C | 68% | 1233.5 hPa | 0 mm | 0.89 m/s, 81° | 0 W/m² | - |
| 1778052283 | 7.78° C | 69% | 1233.3 hPa | 0 mm | 0.89 m/s, 83° | 0 W/m² | - |
| 1778051981 | 7.78° C | 70% | 1233.3 hPa | 0 mm | 0.89 m/s, 103° | 0 W/m² | - |
| 1778051679 | 7.78° C | 70% | 1233.4 hPa | 0 mm | 0.89 m/s, 103° | 0 W/m² | - |
| 1778051375 | 7.78° C | 70% | 1233.3 hPa | 0 mm | 0.89 m/s, 84° | 0 W/m² | - |
| 1778051072 | 7.78° C | 70% | 1233.5 hPa | 0 mm | 0.89 m/s, 104° | 0 W/m² | - |
| 1778050770 | 7.78° C | 69% | 1233.4 hPa | 0 mm | 0.89 m/s, 91° | 0 W/m² | - |
| 1778050467 | 8.33° C | 68% | 1233.4 hPa | 0 mm | 0.89 m/s, 83° | 0 W/m² | - |
| 1778050163 | 8.33° C | 67% | 1233.5 hPa | 0 mm | 0.45 m/s, 80° | 0 W/m² | - |
| 1778049859 | 8.89° C | 67% | 1233.2 hPa | 0 mm | 0.89 m/s, 86° | 0 W/m² | - |
* Rain latest hour (hover to see other rain measurements)
** Current wind speed in m/s (hover to see current wind gust speed)